• In India
  • List of Countries
  • For 7 days
  • Water Temperature
  • Satellite Maps
  • Weather Map
  • Weather Widgets
  • user-avatar
    Login

    Hourly Weather Fier

    Today, 23 October, Monday

    Time Temperature Precipitation Wind Pressure Humidity
    00:00 +17°C° 0.3 mm 5 mps 757 mmHg 75%
    01:00 +17°C° 0 mm 6 mps 756 mmHg 72%
    02:00 +17°C° 1.3 mm 6 mps 755 mmHg 72%
    03:00 +17°C° 1.3 mm 6 mps 755 mmHg 72%
    04:00 +17°C° 1.3 mm 6 mps 754 mmHg 73%
    05:00 +17°C° 0.8 mm 5 mps 754 mmHg 76%
    06:00 +17°C° 0.8 mm 5 mps 754 mmHg 79%
    07:00 +18°C° 0 mm 4 mps 753 mmHg 81%
    08:00 +19°C° 0.6 mm 4 mps 753 mmHg 77%
    09:00 +20°C° 0.6 mm 4 mps 753 mmHg 73%
    10:00 +20°C° 0.6 mm 4 mps 752 mmHg 69%
    11:00 +20°C° 1 mm 4 mps 752 mmHg 66%
    12:00 +20°C° 1 mm 5 mps 752 mmHg 63%
    13:00 +21°C° 1 mm 5 mps 751 mmHg 60%
    14:00 +19°C° 1.5 mm 4 mps 751 mmHg 65%
    15:00 +18°C° 1.5 mm 4 mps 751 mmHg 71%
    16:00 +17°C° 1.5 mm 4 mps 751 mmHg 76%
    17:00 +16°C° 0.8 mm 3 mps 751 mmHg 78%
    18:00 +16°C° 0.8 mm 3 mps 751 mmHg 80%
    19:00 +14°C° 0.8 mm 3 mps 751 mmHg 82%
    20:00 +14°C° 0.2 mm 3 mps 751 mmHg 82%
    21:00 +13°C° 0.2 mm 3 mps 751 mmHg 83%
    22:00 +13°C° 0.2 mm 3 mps 751 mmHg 84%
    23:00 +13°C° 0.4 mm 3 mps 751 mmHg 84%

    Tomorrow, 24 October, Tuesday

    Time Temperature Precipitation Wind Pressure Humidity
    00:00 +12°C° 0.4 mm 4 mps 751 mmHg 83%
    01:00 +12°C° 0.4 mm 4 mps 751 mmHg 83%
    02:00 +12°C° 0.2 mm 4 mps 751 mmHg 83%
    03:00 +12°C° 0.2 mm 4 mps 751 mmHg 84%
    04:00 +12°C° 0.2 mm 4 mps 750 mmHg 84%
    05:00 +12°C° 0.1 mm 4 mps 751 mmHg 83%
    06:00 +12°C° 0.1 mm 4 mps 751 mmHg 82%
    07:00 +12°C° 0.1 mm 4 mps 751 mmHg 81%
    08:00 +13°C° 0 mm 5 mps 751 mmHg 75%
    09:00 +14°C° 0 mm 5 mps 752 mmHg 69%
    10:00 +15°C° 0 mm 6 mps 752 mmHg 63%
    11:00 +15°C° 0.1 mm 6 mps 752 mmHg 62%
    12:00 +15°C° 0.1 mm 7 mps 752 mmHg 61%
    13:00 +16°C° 0.1 mm 7 mps 752 mmHg 60%
    14:00 +15°C° 0.1 mm 7 mps 752 mmHg 62%
    15:00 +15°C° 0.1 mm 7 mps 752 mmHg 64%
    16:00 +14°C° 0.1 mm 7 mps 752 mmHg 67%
    17:00 +14°C° 0 mm 7 mps 753 mmHg 69%
    18:00 +13°C° 0 mm 6 mps 753 mmHg 71%
    19:00 +11°C° 0 mm 6 mps 754 mmHg 73%
    20:00 +11°C° 0 mm 6 mps 754 mmHg 73%
    21:00 +12°C° 0 mm 5 mps 755 mmHg 72%
    22:00 +10°C° 0 mm 5 mps 755 mmHg 72%
    23:00 +10°C° 0 mm 5 mps 756 mmHg 73%

    Day after tomorrow, 25 October, Wednesday

    Time Temperature Precipitation Wind Pressure Humidity
    00:00 +10°C° 0 mm 5 mps 756 mmHg 73%
    01:00 +10°C° 0 mm 5 mps 757 mmHg 73%
    02:00 +10°C° 0 mm 5 mps 757 mmHg 74%
    03:00 +10°C° 0 mm 5 mps 757 mmHg 74%
    04:00 +10°C° 0 mm 5 mps 758 mmHg 75%
    05:00 +10°C° 0 mm 5 mps 758 mmHg 74%
    06:00 +12°C° 0 mm 5 mps 758 mmHg 74%
    07:00 +12°C° 0 mm 5 mps 759 mmHg 74%
    08:00 +14°C° 0 mm 5 mps 759 mmHg 65%
    09:00 +17°C° 0 mm 6 mps 760 mmHg 56%
    10:00 +20°C° 0 mm 6 mps 760 mmHg 47%
    11:00 +21°C° 0 mm 6 mps 760 mmHg 44%
    12:00 +22°C° 0 mm 6 mps 760 mmHg 41%
    13:00 +23°C° 0 mm 7 mps 761 mmHg 38%
    14:00 +22°C° 0 mm 7 mps 761 mmHg 42%
    15:00 +21°C° 0 mm 6 mps 761 mmHg 45%
    16:00 +21°C° 0 mm 6 mps 761 mmHg 48%
    17:00 +19°C° 0 mm 6 mps 762 mmHg 52%
    18:00 +17°C° 0 mm 6 mps 763 mmHg 56%
    19:00 +15°C° 0 mm 5 mps 764 mmHg 60%
    20:00 +15°C° 0 mm 5 mps 764 mmHg 63%
    21:00 +14°C° 0 mm 5 mps 765 mmHg 65%
    22:00 +14°C° 0 mm 5 mps 765 mmHg 68%
    23:00 +14°C° 0 mm 5 mps 766 mmHg 69%

    26 October, Thursday

    Time Temperature Precipitation Wind Pressure Humidity
    00:00 +13°C° 0 mm 5 mps 766 mmHg 70%
    01:00 +13°C° 0 mm 5 mps 766 mmHg 71%
    02:00 +13°C° 0 mm 4 mps 766 mmHg 72%
    03:00 +13°C° 0 mm 4 mps 766 mmHg 72%
    04:00 +12°C° 0 mm 4 mps 767 mmHg 73%
    05:00 +13°C° 0 mm 4 mps 767 mmHg 72%
    06:00 +13°C° 0 mm 4 mps 767 mmHg 71%
    07:00 +13°C° 0 mm 4 mps 767 mmHg 70%
    08:00 +17°C° 0 mm 4 mps 767 mmHg 62%
    09:00 +19°C° 0 mm 3 mps 768 mmHg 53%
    10:00 +21°C° 0 mm 3 mps 768 mmHg 45%
    11:00 +22°C° 0 mm 3 mps 767 mmHg 42%
    12:00 +24°C° 0 mm 3 mps 767 mmHg 39%
    13:00 +25°C° 0 mm 3 mps 767 mmHg 36%
    14:00 +25°C° 0 mm 3 mps 767 mmHg 40%
    15:00 +23°C° 0 mm 4 mps 767 mmHg 44%
    16:00 +22°C° 0 mm 4 mps 766 mmHg 48%
    17:00 +21°C° 0 mm 4 mps 767 mmHg 53%
    18:00 +19°C° 0 mm 3 mps 767 mmHg 57%
    19:00 +18°C° 0 mm 3 mps 767 mmHg 62%
    20:00 +17°C° 0 mm 3 mps 767 mmHg 61%
    21:00 +17°C° 0 mm 2 mps 767 mmHg 61%
    22:00 +17°C° 0 mm 2 mps 768 mmHg 60%
    23:00 +16°C° 0 mm 2 mps 767 mmHg 60%

    27 October, Friday

    Time Temperature Precipitation Wind Pressure Humidity
    00:00 +16°C° 0 mm 2 mps 767 mmHg 59%
    01:00 +16°C° 0 mm 2 mps 767 mmHg 59%
    02:00 +16°C° 0 mm 2 mps 767 mmHg 59%
    03:00 +15°C° 0 mm 2 mps 766 mmHg 59%
    04:00 +15°C° 0 mm 2 mps 766 mmHg 58%
    05:00 +16°C° 0 mm 2 mps 766 mmHg 57%
    06:00 +16°C° 0 mm 2 mps 766 mmHg 57%
    07:00 +16°C° 0 mm 2 mps 766 mmHg 56%
    08:00 +19°C° 0 mm 1 mps 765 mmHg 50%
    09:00 +22°C° 0 mm 1 mps 765 mmHg 44%
    10:00 +24°C° 0 mm 1 mps 765 mmHg 38%
    11:00 +25°C° 0 mm 2 mps 764 mmHg 37%
    12:00 +25°C° 0 mm 2 mps 763 mmHg 36%
    13:00 +26°C° 0 mm 3 mps 763 mmHg 35%
    14:00 +25°C° 0 mm 3 mps 762 mmHg 41%
    15:00 +24°C° 0 mm 2 mps 762 mmHg 46%
    16:00 +23°C° 0 mm 2 mps 761 mmHg 51%
    17:00 +20°C° 0 mm 2 mps 761 mmHg 57%
    18:00 +20°C° 0 mm 1 mps 761 mmHg 62%
    19:00 +18°C° 0 mm 1 mps 761 mmHg 67%
    20:00 +18°C° 0 mm 1 mps 760 mmHg 66%
    21:00 +18°C° 0 mm 1 mps 760 mmHg 64%
    22:00 +16°C° 0 mm 1 mps 760 mmHg 63%
    23:00 +16°C° 0 mm 1 mps 759 mmHg 62%

    28 October, Saturday

    Time Temperature Precipitation Wind Pressure Humidity
    00:00 +16°C° 0 mm 1 mps 759 mmHg 61%
    01:00 +16°C° 0 mm 1 mps 758 mmHg 60%
    02:00 +15°C° 0 mm 1 mps 758 mmHg 60%
    03:00 +15°C° 0 mm 1 mps 758 mmHg 60%
    04:00 +15°C° 0 mm 1 mps 757 mmHg 60%
    05:00 +15°C° 0 mm 1 mps 757 mmHg 59%
    06:00 +15°C° 0 mm 1 mps 757 mmHg 57%
    07:00 +16°C° 0 mm 1 mps 757 mmHg 56%
    08:00 +18°C° 0 mm 1 mps 757 mmHg 51%
    09:00 +20°C° 0 mm 1 mps 757 mmHg 46%
    10:00 +21°C° 0 mm 1 mps 757 mmHg 41%
    11:00 +22°C° 0 mm 1 mps 757 mmHg 41%
    12:00 +21°C° 0 mm 2 mps 756 mmHg 41%
    13:00 +21°C° 0 mm 2 mps 756 mmHg 40%
    14:00 +20°C° 0 mm 2 mps 756 mmHg 45%
    15:00 +20°C° 0 mm 3 mps 756 mmHg 50%
    16:00 +19°C° 0 mm 3 mps 756 mmHg 56%
    17:00 +18°C° 0 mm 3 mps 756 mmHg 59%
    18:00 +17°C° 0 mm 3 mps 757 mmHg 63%
    19:00 +16°C° 0 mm 3 mps 757 mmHg 67%
    20:00 +16°C° 0 mm 3 mps 757 mmHg 67%
    21:00 +15°C° 0 mm 4 mps 757 mmHg 68%
    22:00 +14°C° 0 mm 4 mps 757 mmHg 69%
    23:00 +14°C° 0 mm 4 mps 757 mmHg 69%

    29 October, Sunday

    Time Temperature Precipitation Wind Pressure Humidity
    00:00 +13°C° 0 mm 4 mps 757 mmHg 69%
    01:00 +13°C° 0 mm 4 mps 757 mmHg 69%
    02:00 +13°C° 0 mm 5 mps 757 mmHg 69%
    03:00 +12°C° 0 mm 5 mps 757 mmHg 69%
    04:00 +12°C° 0 mm 5 mps 757 mmHg 70%
    05:00 +10°C° 0 mm 5 mps 757 mmHg 69%
    06:00 +10°C° 0 mm 6 mps 757 mmHg 69%
    07:00 +10°C° 0 mm 6 mps 758 mmHg 69%
    08:00 +11°C° 0 mm 6 mps 758 mmHg 61%
    09:00 +14°C° 0 mm 6 mps 758 mmHg 52%
    10:00 +15°C° 0 mm 6 mps 758 mmHg 44%
    11:00 +16°C° 0 mm 7 mps 758 mmHg 42%
    12:00 +16°C° 0 mm 7 mps 758 mmHg 39%
    13:00 +17°C° 0 mm 7 mps 758 mmHg 36%
    14:00 +16°C° 0 mm 7 mps 758 mmHg 39%
    15:00 +16°C° 0 mm 7 mps 758 mmHg 42%
    16:00 +15°C° 0 mm 7 mps 758 mmHg 45%
    17:00 +14°C° 0 mm 7 mps 759 mmHg 49%
    18:00 +11°C° 0 mm 7 mps 759 mmHg 54%
    19:00 +10°C° 0 mm 6 mps 760 mmHg 58%
    20:00 +10°C° 0 mm 6 mps 760 mmHg 59%
    21:00 +9°C° 0 mm 6 mps 760 mmHg 59%
    22:00 +9°C° 0 mm 5 mps 761 mmHg 60%
    23:00 +8°C° 0 mm 5 mps 761 mmHg 60%
    Show more